Wind_Speed
7 4 3 4 5 6 7 9 9 8 8 5 3 3 5 3 5 5 0 4 4 1 5 7 7 9 10 7 9 19 22 19 18 19 20 22 24 24 22 21 20 19 18 17 14 12 12 12 11 10 10 10 11 12 14 15 15 14 13 12 12 13 12 10 11 11 12 12 12 11 11 10 9 9 8 8 8 9 9 8 7 7 6 6 6 5
4 4 6 7 7 7 8 8 9 8 8 6 3 4 5 3 5 5 1 4 3 2 4 6 7 10 10 9 9 15 17 16 20 21 22 24 24 25 25 23 22 20 20 18 15 14 14 13 12 11 11 11 12 13 14 15 14 14 13 12 12 15 15 14 14 13 11 11 10 9 9 9 11 11 10 11 12 12 12 11 10 10 10 11 11 11
3 5 8 10 8 8 8 5 3 5 4 5 3 3 5 3 5 4 2 3 2 1 4 6 7 9 9 9 10 12 14 19 28 28 26 27 26 26 25 24 24 22 22 19 17 16 15 13 13 13 13 13 13 14 14 15 14 14 14 13 12 13 13 13 12 10 9 10 10 10 11 13 15 16 16 16 17 17 16 16 15 15 14 14 14 14
4 5 10 14 10 7 6 1 1 3 2 3 3 3 4 3 3 3 1 1 1 2 4 6 7 8 10 9 11 19 23 20 23 26 24 24 26 27 26 26 26 24 23 21 19 18 16 15 15 15 15 14 15 16 16 16 16 15 15 14 12 12 12 11 10 10 11 13 13 14 16 18 19 20 19 19 20 19 18 17 17 16 15 14 13 13
7 4 7 12 9 6 4 3 3 3 3 4 6 5 5 4 5 5 2 3 3 3 4 5 7 7 8 11 12 15 17 13 15 18 17 17 21 23 23 24 24 24 23 22 20 19 18 17 17 17 17 17 18 18 19 18 18 17 17 15 15 14 13 12 12 13 15 16 18 20 21 22 22 22 21 20 20 19 17 16 15 15 14 12 12 12
9 5 5 7 6 6 5 5 5 5 3 4 5 7 8 8 7 6 3 1 2 3 3 2 4 5 4 8 8 3 4 7 11 14 16 17 18 20 22 23 23 22 22 21 21 20 18 18 18 18 19 20 20 20 20 20 19 19 18 17 17 16 15 15 16 17 18 19 21 23 24 24 23 23 21 19 19 17 15 14 13 13 12 11 10 10
3 4 4 4 5 6 5 5 5 7 3 3 3 3 4 7 6 5 5 3 2 3 2 3 2 6 5 7 8 3 4 8 8 10 16 20 20 21 23 24 24 23 22 21 21 20 19 19 18 19 21 22 21 22 22 21 21 21 20 20 19 18 18 19 20 21 21 23 23 23 23 22 21 21 20 18 16 15 13 13 12 11 10 10 9 8
3 5 3 3 5 5 5 5 4 7 4 3 3 4 3 1 2 2 3 3 3 3 2 3 3 6 9 9 9 7 7 8 8 10 13 20 25 26 26 25 26 26 25 25 23 22 21 19 19 21 23 23 22 23 24 23 23 23 22 21 20 20 21 23 24 25 25 25 24 23 21 20 18 17 18 17 15 13 12 11 11 9 9 9 8 7
3 6 5 6 6 5 5 3 4 7 5 2 0 3 5 3 3 2 3 3 3 3 2 4 3 4 8 6 5 8 10 9 12 13 12 19 26 27 27 26 26 27 26 26 25 23 22 19 20 23 24 24 23 25 26 25 24 24 23 23 22 23 23 25 26 26 26 24 22 21 19 19 18 16 15 15 13 12 11 10 9 9 8 8 7 6
2 2 3 5 5 5 3 2 2 4 4 4 4 5 5 2 2 1 2 2 2 4 6 5 5 4 9 5 4 7 9 10 12 11 12 19 25 25 26 26 26 27 27 26 24 22 21 21 22 25 25 24 25 26 27 26 25 24 25 25 25 26 26 26 25 25 24 22 21 19 17 16 16 15 14 14 13 12 10 9 9 8 7 7 6 6
4 2 2 1 2 2 5 5 6 3 5 7 5 4 3 1 1 0 2 1 1 6 7 9 10 7 6 3 5 6 6 8 9 5 6 13 21 23 24 26 27 28 28 27 25 23 22 23 25 26 25 26 27 27 27 27 26 26 27 28 28 28 28 27 25 24 23 22 20 18 16 14 14 14 13 12 12 11 10 9 8 8 7 6 6 5
3 2 1 1 4 6 6 4 5 4 4 6 3 3 2 1 2 2 1 2 2 6 5 9 13 11 8 4 1 1 1 2 4 5 7 10 18 23 24 26 27 27 28 28 27 26 26 27 27 26 27 29 29 29 29 29 29 29 30 31 31 31 30 28 27 25 23 21 19 18 16 14 13 12 11 11 10 10 9 8 8 7 6 6 5 5
3 5 4 3 5 8 6 3 2 4 1 3 4 5 3 1 1 1 2 3 4 6 3 5 9 9 10 8 6 6 1 2 2 5 13 15 19 23 24 26 27 27 28 28 29 29 28 28 27 28 30 31 32 32 32 32 32 33 33 33 32 32 31 30 28 25 23 21 20 18 17 15 13 12 11 10 9 9 9 8 7 6 6 5 5 4
2 4 7 4 3 11 11 6 4 1 3 6 5 6 5 3 2 3 4 3 4 5 4 3 3 3 5 5 10 12 4 4 6 6 15 20 22 23 24 26 27 27 28 29 29 29 28 28 28 30 32 33 34 34 34 34 35 35 35 34 33 32 31 30 28 26 23 22 20 18 17 15 14 12 11 10 9 9 8 7 6 6 5 4 3 3
4 4 7 7 3 12 15 11 8 5 6 8 6 6 5 4 4 3 3 3 3 2 3 3 1 3 2 1 4 3 5 9 7 8 13 18 21 22 23 24 25 27 29 29 30 29 28 28 30 32 34 35 36 36 37 37 37 36 36 35 34 32 31 30 28 26 24 23 21 19 17 15 14 12 11 10 9 9 8 7 6 5 4 3 2 1
6 5 6 8 6 13 14 11 8 8 4 5 4 5 5 4 4 2 1 3 1 2 2 2 3 4 3 2 3 5 7 8 6 8 14 18 20 22 23 24 25 27 29 30 30 29 28 30 32 34 35 37 38 38 39 39 38 37 36 35 34 32 31 30 28 26 24 23 21 20 18 16 14 12 11 10 10 9 8 7 5 4 3 2 1 0
5 3 2 4 4 9 7 7 9 7 3 3 4 5 4 2 3 3 2 1 3 3 4 4 5 4 3 4 5 7 4 5 5 6 11 17 21 23 24 26 27 28 29 30 30 29 30 32 34 35 37 38 40 40 40 40 39 38 37 36 34 33 31 29 28 26 25 24 22 20 18 16 14 13 11 11 10 9 8 7 5 4 3 2 1 2
4 1 1 1 2 3 1 1 4 3 4 5 4 4 3 4 2 1 1 2 1 6 4 5 8 5 3 5 4 8 6 5 6 7 10 15 21 23 24 26 27 28 29 29 29 30 32 34 35 37 38 40 40 41 41 40 39 38 37 35 35 33 32 30 28 27 25 24 22 21 19 17 15 13 12 11 10 9 8 7 5 4 3 3 3 3
3 2 3 1 2 0 2 2 1 2 3 5 2 2 3 2 0 3 1 2 3 5 5 5 8 7 7 6 4 8 9 9 9 9 10 13 19 22 23 25 26 26 28 29 30 32 34 36 37 38 40 41 41 41 41 40 39 38 37 35 34 32 31 30 29 27 26 24 23 21 19 17 16 14 13 12 11 10 8 7 6 5 5 5 5 5
2 3 2 3 2 2 1 1 4 3 1 3 4 3 2 2 3 4 2 2 3 4 6 5 6 6 7 8 9 11 13 13 12 11 11 14 21 24 25 27 28 29 31 32 33 35 36 37 38 39 41 42 42 42 42 41 40 38 37 36 34 32 31 30 29 28 27 25 24 22 20 18 17 16 15 13 12 11 9 8 7 7 8 8 8 8
2 2 3 3 3 2 2 4 8 9 7 3 1 3 2 2 1 0 2 2 3 3 4 6 8 5 3 5 10 14 14 13 14 14 13 16 24 28 29 31 32 32 33 34 35 36 37 38 39 41 42 42 43 43 42 42 40 39 38 36 35 34 33 31 29 29 28 26 25 23 21 20 18 17 16 15 14 12 11 10 10 10 10 10 10 10
3 3 4 2 2 4 4 6 7 6 7 7 6 6 7 5 3 1 5 4 3 4 4 4 9 8 2 1 6 13 11 11 15 15 13 19 28 30 31 32 33 34 35 36 37 37 37 39 41 42 43 44 44 44 44 42 41 40 39 38 36 35 33 32 30 29 28 26 25 24 22 21 20 19 18 17 15 14 13 13 12 12 12 12 12 12
4 2 3 3 4 4 3 3 4 3 2 2 4 6 7 7 7 6 7 4 3 6 5 2 8 8 1 3 2 4 4 9 19 20 15 21 29 30 30 31 32 33 35 35 37 37 37 40 42 43 45 45 46 45 45 44 42 41 40 39 38 36 34 32 30 29 28 27 26 25 24 23 22 21 20 18 17 16 15 15 14 14 14 13 13 13
4 2 3 2 0 1 2 2 2 2 2 0 4 6 7 9 9 7 6 2 2 7 5 2 8 7 2 4 5 5 2 5 17 24 22 21 26 30 31 31 32 33 33 34 36 36 37 40 42 44 46 47 47 46 46 45 44 43 41 40 38 36 35 33 31 30 29 28 27 26 25 25 24 23 21 20 19 18 17 16 16 15 15 15 14 15
5 2 3 2 2 1 0 1 2 1 2 4 5 6 8 9 7 4 2 1 4 10 7 5 10 7 1 3 5 7 5 4 5 16 23 23 25 30 32 32 32 33 33 34 36 36 38 40 43 45 46 47 48 47 47 46 45 44 43 41 39 37 35 34 32 32 30 29 29 28 27 27 25 24 23 21 20 19 18 18 17 17 16 16 16 16
8 3 5 6 7 8 7 5 3 4 4 3 4 7 10 11 11 7 3 4 10 10 7 9 13 7 1 3 3 3 2 3 3 8 19 24 27 30 31 31 31 32 33 34 36 37 38 40 42 45 46 47 48 47 47 47 46 45 43 41 39 37 36 35 34 33 32 31 30 29 28 27 26 25 24 22 21 20 20 19 19 18 17 17 17 17
3 2 9 12 12 12 12 7 5 8 7 6 9 11 13 14 14 9 5 10 11 3 5 14 14 10 8 3 3 5 4 5 4 7 15 21 26 29 29 30 30 32 34 34 34 36 38 39 42 44 45 47 47 48 48 47 47 45 44 42 40 38 37 36 36 35 33 32 31 30 29 28 27 25 24 23 22 21 21 20 20 19 18 18 18 18
3 3 12 16 17 18 18 12 7 9 10 11 13 14 15 16 15 14 14 16 9 2 11 15 9 14 17 8 8 10 7 6 6 11 17 21 23 25 27 28 30 31 32 32 34 36 37 38 41 43 45 46 47 47 47 47 47 46 44 42 40 40 39 38 38 36 35 33 32 31 29 28 26 25 24 23 23 22 22 21 21 20 19 19 20 19
2 6 12 14 18 19 20 17 10 8 9 10 12 15 17 17 19 21 22 20 11 9 19 15 10 16 20 10 10 11 10 12 14 18 22 23 23 26 28 29 30 31 31 32 34 36 37 38 40 42 44 45 45 46 47 48 48 46 44 43 42 42 41 40 39 37 36 35 33 31 30 28 26 26 25 25 24 24 24 23 22 22 21 21 21 21
2 7 8 9 13 17 18 16 12 10 10 10 10 13 15 19 24 24 22 19 16 18 24 19 13 19 17 7 8 15 20 21 17 17 22 25 27 28 29 30 31 31 31 32 33 34 35 37 39 40 42 43 44 45 46 48 49 47 46 45 44 43 43 42 40 38 37 36 34 32 30 28 27 27 27 27 26 26 25 25 24 23 22 22 22 22
3 6 3 5 5 13 17 15 11 10 12 14 14 14 16 21 21 19 17 16 16 20 25 21 17 19 15 7 8 17 23 19 14 16 22 25 27 28 27 28 28 27 28 29 30 32 33 36 37 38 39 39 41 43 45 47 48 47 46 46 46 46 45 44 42 39 38 36 34 32 30 29 29 29 28 28 28 27 27 26 25 24 24 24 24 24
3 2 1 4 3 11 16 13 12 12 12 13 18 22 25 23 15 12 14 15 16 18 20 16 15 18 13 7 6 11 16 14 12 16 20 22 26 27 25 24 23 23 25 26 27 30 32 33 33 34 34 35 37 41 43 45 45 45 46 47 47 47 45 44 43 40 38 36 34 32 31 30 30 29 30 30 29 29 28 27 26 25 25 25 25 25
5 4 2 3 5 12 16 10 8 8 8 11 19 26 27 21 14 12 15 17 18 18 15 13 15 14 6 6 6 7 9 11 14 19 22 23 24 24 22 20 20 20 20 22 25 27 28 28 27 27 29 31 34 37 38 39 41 42 45 46 46 46 45 44 42 40 38 36 34 33 32 31 30 30 31 31 31 30 29 28 27 27 26 26 26 27
6 7 6 5 4 10 12 3 5 6 11 11 11 13 16 18 18 19 20 20 19 16 14 13 11 5 4 9 10 10 12 17 22 27 28 26 24 22 19 17 16 17 19 22 25 24 22 22 21 23 24 27 29 31 32 34 35 37 40 42 43 43 42 42 41 40 38 36 35 34 32 31 31 31 32 32 31 30 29 29 28 27 27 28 28 29
8 8 7 4 3 4 1 5 4 10 12 7 3 1 6 11 15 17 20 21 19 16 16 18 14 7 8 11 13 16 22 25 26 27 26 25 24 20 17 17 17 20 24 27 25 22 19 19 20 22 23 24 23 24 25 26 28 31 34 36 38 39 39 39 39 39 38 37 36 34 32 32 33 34 34 33 31 30 29 29 28 28 29 29 29 29
9 9 6 4 4 2 2 6 10 7 4 5 4 1 1 2 6 9 13 18 20 17 16 19 19 11 8 9 11 15 21 21 19 20 22 22 20 17 17 19 22 26 30 28 23 20 19 20 21 22 21 19 17 17 17 19 21 24 27 29 32 34 34 35 36 37 37 37 36 34 33 34 34 35 34 32 31 30 30 29 29 29 29 29 29 30
10 9 6 5 6 5 5 9 8 6 9 11 8 4 5 5 7 9 10 14 16 15 15 17 15 9 8 9 10 12 14 12 7 10 15 17 17 18 19 21 24 27 27 23 19 18 19 20 21 19 16 15 15 15 16 16 17 19 22 25 27 28 29 31 33 34 35 35 34 34 34 34 34 33 33 32 31 31 30 29 29 29 29 29 30 30
9 9 9 8 6 6 8 8 5 5 11 11 6 5 7 5 6 9 8 10 8 10 16 17 11 10 10 8 11 14 12 6 3 8 14 17 17 20 21 20 21 22 20 19 19 20 20 20 19 17 16 16 17 17 17 16 17 18 20 21 22 24 25 27 29 31 32 32 32 32 32 32 32 32 31 31 31 30 29 29 28 28 28 29 29 29
4 5 6 7 5 5 7 8 7 8 8 5 2 3 3 2 5 8 4 9 4 3 15 17 11 11 13 13 15 14 9 5 6 9 15 20 21 22 22 21 20 20 19 19 19 19 20 19 18 17 17 18 18 18 17 17 16 17 17 18 19 20 21 22 23 24 24 24 25 26 27 28 29 29 30 30 29 29 28 28 27 27 27 28 28 28
2 2 4 6 7 7 8 8 6 5 4 2 3 4 3 2 8 9 3 7 3 5 6 13 12 13 17 19 18 11 6 8 7 8 15 20 22 23 22 21 21 21 21 20 19 19 19 18 18 18 18 18 18 17 16 15 15 16 15 15 16 17 17 16 15 14 15 17 19 21 23 24 25 26 27 28 28 27 27 27 26 27 27 27 28 28
3 3 4 7 9 10 10 9 5 3 3 3 5 6 3 4 6 6 5 3 2 6 3 9 16 20 22 23 18 11 9 9 7 8 12 15 19 23 23 21 21 19 19 19 20 19 18 17 17 16 16 15 15 14 14 14 14 14 13 13 14 14 13 11 11 12 14 15 17 18 20 21 22 23 24 25 25 26 26 27 27 27 28 27 28 28
5 4 3 6 8 7 8 8 5 4 3 4 4 5 5 4 3 5 3 2 3 5 6 8 16 22 24 26 22 16 13 11 8 9 12 13 16 20 21 21 21 19 19 19 18 17 17 17 16 16 14 13 13 13 13 13 13 12 12 12 13 13 12 11 12 13 15 16 17 18 19 20 21 21 22 23 24 26 27 27 28 28 28 29 29 30
6 5 4 6 6 3 4 6 5 4 3 9 9 3 2 2 4 7 7 5 4 5 4 4 10 16 20 23 21 15 12 13 12 11 12 13 14 15 18 20 21 21 20 19 18 17 17 16 16 15 14 14 13 13 13 12 12 11 12 13 13 13 12 13 14 15 16 17 18 19 20 20 20 21 22 23 24 25 26 27 28 29 29 30 30 30
3 4 3 5 5 4 5 5 3 2 1 6 5 2 3 6 8 8 6 3 2 1 2 5 7 10 13 16 17 15 12 12 13 12 11 13 13 14 16 18 19 19 19 17 17 17 16 15 15 15 14 14 13 12 12 12 11 12 14 14 12 13 14 14 15 16 17 18 19 19 20 20 20 21 21 22 23 25 26 28 28 29 29 30 29 30
2 2 2 2 1 1 2 2 1 1 3 5 5 5 8 9 7 3 3 1 3 6 8 8 7 7 9 11 13 14 12 11 12 12 11 12 13 14 15 16 17 17 16 16 15 15 15 15 15 15 15 14 13 12 12 11 11 12 13 12 12 13 15 15 16 17 17 18 20 20 20 21 21 22 22 23 24 26 27 28 29 29 30 30 31 32
1 2 1 1 1 1 2 3 2 2 4 5 5 7 9 7 5 3 4 7 9 10 11 9 5 5 7 10 12 12 13 12 12 12 12 13 15 15 16 16 15 15 14 14 14 14 14 15 15 15 15 13 12 11 10 10 10 11 11 11 13 15 16 17 17 17 17 18 19 20 22 23 23 24 25 25 26 27 28 29 30 31 32 33 34 34
2 4 2 2 2 2 2 2 2 2 5 6 6 8 10 12 11 9 10 11 11 10 9 7 4 4 6 8 10 11 13 13 12 13 14 15 15 16 15 14 14 13 12 12 12 12 14 14 15 15 14 13 12 10 9 9 10 11 11 12 14 17 19 20 21 20 20 20 20 21 23 25 26 27 27 28 28 29 30 31 32 33 35 36 36 37
3 5 4 2 2 2 2 1 1 3 6 8 9 13 16 17 17 15 14 14 12 9 8 7 7 8 8 8 9 10 11 11 12 14 15 15 15 14 13 12 11 11 10 10 11 12 13 14 14 14 14 13 11 11 11 11 10 11 12 14 16 18 20 23 24 25 25 24 23 24 25 26 28 29 30 30 31 31 32 34 35 37 38 38 39 39
6 6 3 2 3 2 1 1 3 4 2 6 11 16 21 21 20 18 15 13 11 9 9 10 11 11 11 10 9 9 9 10 11 13 14 14 13 12 11 10 10 9 10 11 11 12 13 14 14 14 14 13 12 13 13 13 12 13 14 15 17 19 21 23 25 28 29 29 29 29 29 29 30 31 33 34 34 35 36 37 38 40 40 40 41 41
6 4 2 3 3 2 2 7 9 5 1 9 17 22 24 24 21 19 16 12 11 10 11 13 12 11 11 9 8 8 8 10 12 13 12 10 9 8 8 8 8 9 11 12 13 14 15 15 16 16 16 16 15 16 16 16 16 17 17 18 19 21 23 24 25 27 29 32 33 34 34 33 34 34 36 37 37 38 39 40 41 42 43 43 43 43
6 5 5 5 3 2 6 16 18 8 3 12 23 26 28 26 23 20 16 12 11 12 12 12 10 8 8 7 7 7 9 10 11 11 9 7 7 7 7 8 8 9 10 12 15 16 17 18 18 19 19 19 18 18 18 18 19 19 20 21 22 23 25 26 27 28 29 30 32 35 37 38 38 38 38 39 39 40 40 41 42 43 43 44 44 45
Wind_Direction
176 168 197 209 215 210 210 215 226 249 266 298 338 297 286 286 274 281 226 175 182 188 227 232 248 254 256 256 210 195 199 206 206 204 202 194 193 199 200 203 204 205 218 232 234 227 226 230 228 227 218 203 191 182 174 169 169 171 171 176 172 156 147 153 160 162 169 178 183 185 185 185 174 166 167 169 174 177 177 178 175 173 169 161 160 160
172 202 224 219 223 230 233 228 223 236 260 274 282 290 281 267 267 276 196 155 140 132 250 258 269 267 259 264 248 200 189 207 211 205 207 200 194 198 200 200 201 206 217 226 225 220 221 222 218 217 213 202 192 186 180 174 173 175 173 175 175 165 162 168 173 177 184 185 187 186 177 167 154 144 140 138 137 141 145 145 141 137 131 126 122 118
214 233 233 230 236 241 248 267 248 232 257 277 275 281 270 268 285 286 117 124 120 159 265 281 274 272 265 261 263 231 204 211 215 213 212 205 197 198 198 197 200 206 215 220 218 214 215 216 213 211 211 203 193 184 178 175 174 173 172 173 174 176 177 175 174 176 174 166 159 152 145 140 137 134 132 129 126 126 127 127 126 124 120 117 113 110
214 233 229 229 238 243 235 236 323 290 281 259 251 259 260 251 263 274 80 144 193 209 267 298 288 274 271 263 256 246 237 224 216 216 215 209 203 202 201 202 205 209 213 215 213 210 208 209 209 209 208 201 191 183 178 177 173 169 168 168 166 166 165 158 153 152 148 145 143 140 137 136 135 132 130 128 124 124 125 123 122 118 114 111 107 104
238 244 213 213 219 218 209 195 199 235 256 234 221 225 246 252 237 236 221 190 199 229 245 289 295 271 251 247 245 243 239 223 201 202 207 204 200 201 201 203 209 216 218 214 210 206 204 205 207 207 203 198 194 186 181 178 173 171 170 168 165 161 155 149 148 148 146 145 144 143 140 139 138 133 131 130 126 125 123 121 118 113 108 105 100 97
246 231 176 186 191 178 200 224 188 183 237 249 224 220 226 238 254 264 282 303 321 291 226 176 283 271 243 245 248 226 204 205 188 191 201 195 186 188 193 197 204 213 216 214 211 205 202 204 206 204 200 200 197 186 181 179 175 175 175 172 169 165 161 158 155 151 148 147 146 144 142 142 140 135 134 131 126 125 123 119 115 110 106 101 96 92
228 168 137 156 172 167 199 233 183 172 214 257 263 276 231 228 255 291 310 309 284 283 225 145 218 274 291 272 260 228 200 212 193 196 207 199 192 192 195 198 200 202 204 205 206 203 202 205 207 203 199 201 197 184 182 182 179 179 178 174 171 169 167 162 155 152 151 150 148 146 144 143 142 138 135 132 129 128 125 121 117 112 108 101 94 89
118 143 119 134 166 172 197 222 190 174 189 234 275 352 27 301 274 290 301 266 250 305 275 174 196 274 282 265 245 217 206 214 211 217 214 204 203 203 202 202 200 200 201 199 200 201 203 207 206 203 201 201 194 185 184 183 183 182 179 175 171 170 168 162 156 154 153 152 150 149 147 144 143 142 137 135 135 133 129 127 123 118 113 105 97 88
96 162 169 165 179 198 199 217 203 187 193 211 197 51 67 55 20 4 315 270 289 326 264 196 173 261 272 256 220 211 212 218 219 219 215 207 205 202 201 203 203 203 203 203 203 203 203 205 204 202 202 199 191 187 185 184 183 181 178 174 172 169 165 162 158 153 151 151 150 149 150 148 146 145 142 140 141 137 135 137 130 124 117 109 99 89
49 169 179 170 192 213 176 31 341 190 183 178 139 79 76 83 66 14 278 270 307 277 239 207 168 224 272 262 193 216 220 219 225 223 214 205 200 196 195 198 201 202 202 203 204 203 202 201 201 201 200 195 190 186 184 183 182 181 177 173 170 166 163 160 157 152 151 152 151 152 154 155 152 151 150 148 147 144 144 145 136 128 120 109 100 89
111 86 348 202 182 145 121 59 18 57 131 150 138 92 82 187 119 90 244 158 291 262 228 202 188 204 274 269 176 209 215 212 224 219 189 187 183 185 189 192 195 197 198 199 199 199 198 198 200 200 196 191 188 185 183 183 183 180 177 172 168 165 162 159 157 156 155 153 153 155 158 161 160 158 158 156 154 150 150 149 139 130 122 111 103 93
140 124 21 175 143 114 105 71 25 39 117 134 120 110 90 319 48 25 261 148 234 257 221 199 195 197 234 257 208 222 100 206 227 173 153 160 168 176 183 187 190 192 195 195 194 195 195 197 198 196 192 188 185 183 182 182 182 179 175 172 169 165 163 161 160 160 160 158 158 159 162 165 165 163 163 162 159 156 153 150 141 131 123 116 110 100
214 204 170 154 176 165 141 95 49 6 16 151 131 125 121 276 335 317 215 176 228 249 261 214 193 202 237 252 263 271 295 33 12 148 164 165 168 176 180 183 187 189 191 192 192 195 196 197 195 192 189 186 183 182 181 180 179 177 174 172 170 168 166 165 164 163 164 163 162 164 167 168 168 167 166 166 164 159 155 149 140 133 127 123 116 105
247 234 177 156 221 191 178 173 185 218 186 176 156 150 161 174 227 247 213 222 245 243 301 310 177 219 278 266 249 252 224 107 63 113 164 171 171 177 179 181 185 188 191 193 194 197 198 196 193 190 188 184 182 181 180 180 178 177 175 173 172 171 169 168 168 167 168 167 167 170 172 173 173 172 169 169 167 161 156 150 142 136 132 126 117 103
211 273 187 174 185 183 191 207 194 142 161 192 175 170 182 167 201 231 194 223 263 275 313 327 148 187 225 253 239 246 95 102 90 109 149 165 170 173 176 180 186 189 192 194 196 198 198 194 191 189 186 183 182 181 180 180 179 178 177 175 175 175 174 173 172 171 171 171 172 174 175 176 177 176 174 172 168 162 157 150 145 143 139 130 117 97
207 260 177 163 153 166 191 216 185 127 143 207 171 184 219 199 204 237 194 183 157 330 284 225 232 221 212 227 153 104 86 103 113 124 137 150 162 168 174 181 188 192 193 195 198 198 194 192 191 189 185 183 182 182 182 182 181 180 180 179 178 178 178 178 176 175 175 176 177 178 179 180 179 179 178 175 170 164 158 155 153 152 152 151 152 184
194 258 125 119 131 162 186 215 190 165 156 177 170 196 208 142 169 215 282 53 101 273 258 181 240 276 288 265 170 139 127 124 138 156 151 154 162 170 177 184 191 193 194 196 198 196 193 191 190 188 186 184 184 184 184 184 183 183 183 182 181 181 181 181 180 180 179 180 182 182 182 183 182 182 181 176 172 167 163 164 165 168 177 187 222 254
167 221 276 122 137 173 14 34 195 188 119 134 184 196 118 52 46 135 293 357 154 260 259 185 228 238 214 255 178 148 171 180 184 188 173 169 170 177 185 189 193 194 195 197 197 195 194 191 190 188 187 187 187 187 187 186 186 186 186 186 186 186 185 185 185 184 183 185 186 186 185 185 185 184 182 178 176 174 171 173 178 188 201 214 232 251
160 200 267 346 55 32 12 88 151 338 83 121 210 230 106 82 212 138 201 255 210 257 275 214 225 224 208 222 182 171 194 199 197 191 185 185 182 184 189 190 193 194 194 197 196 195 195 193 191 189 189 190 190 190 189 189 189 188 188 189 189 189 189 189 189 187 187 188 189 189 189 189 188 186 185 184 182 182 183 187 195 202 213 224 232 242
175 199 250 321 351 95 73 163 171 201 142 56 355 315 94 122 175 164 189 219 179 238 275 252 233 230 217 201 176 187 203 197 190 190 195 194 187 187 190 191 194 195 196 197 196 196 196 194 193 192 192 193 192 192 192 192 192 191 191 192 191 191 192 192 192 190 191 191 192 193 192 191 191 189 190 190 189 190 193 199 207 212 220 226 231 238
119 205 216 299 322 132 156 207 191 189 187 164 191 217 182 129 100 104 242 212 179 224 261 264 262 251 205 187 178 187 202 195 185 191 196 192 188 190 193 193 194 195 198 198 197 197 196 194 195 195 195 195 195 195 195 194 195 194 194 195 194 195 195 195 194 194 195 195 195 196 195 194 194 195 195 195 195 198 203 208 213 218 224 228 233 239
166 195 182 172 229 206 212 208 194 191 189 187 189 189 188 179 150 220 249 213 181 226 228 250 272 263 201 167 177 182 196 193 185 191 190 187 189 192 194 195 196 198 200 200 199 198 196 196 197 197 197 198 197 197 198 198 198 198 198 198 198 198 198 198 198 197 198 198 198 198 198 199 200 199 200 200 202 206 210 215 219 223 228 232 236 241
136 125 192 194 192 201 212 177 163 154 144 180 221 196 186 192 181 194 232 211 171 235 237 254 278 275 311 41 82 158 187 187 187 188 185 188 190 189 192 196 199 201 203 201 199 198 198 198 199 200 200 200 200 200 201 201 201 201 202 201 201 201 200 200 201 201 201 202 201 201 202 203 204 205 205 206 209 212 216 219 223 227 232 236 239 243
89 110 200 225 252 101 81 86 82 73 90 353 248 205 191 208 200 200 225 169 149 232 217 213 261 269 343 14 10 5 6 168 184 187 183 184 187 187 191 196 199 201 202 202 199 199 200 200 201 203 203 203 203 203 204 204 204 205 205 204 204 203 203 202 203 204 204 204 204 204 206 207 208 209 210 212 214 217 220 222 226 230 234 238 242 245
151 175 146 128 286 279 117 335 345 341 186 215 230 206 207 214 196 204 247 90 256 238 196 211 251 246 312 357 7 359 3 60 147 181 182 182 183 184 189 195 198 199 199 199 197 198 201 202 204 206 207 207 207 207 207 208 208 208 208 207 206 206 205 205 206 207 207 207 207 208 210 211 212 213 215 216 218 220 223 226 229 232 236 240 243 245
164 178 151 174 222 226 226 235 212 183 184 220 220 196 209 212 192 196 214 211 241 232 176 218 247 244 325 339 341 338 360 68 89 162 177 181 183 184 188 192 194 195 197 197 196 200 203 205 207 210 211 211 211 210 211 212 212 211 210 210 209 208 208 209 210 210 210 211 211 212 214 215 216 218 218 219 220 223 226 229 232 234 238 240 243 244
134 179 180 197 215 224 236 236 154 139 159 202 209 198 205 212 203 201 211 221 231 230 207 230 243 258 267 254 243 249 211 195 192 165 172 179 182 183 185 189 192 194 198 197 197 201 205 207 211 213 214 215 214 214 215 216 216 214 213 213 212 212 212 213 213 213 213 214 215 216 218 219 220 221 222 222 224 227 230 232 234 236 239 241 243 244
68 198 198 209 216 226 238 235 175 147 174 200 204 204 208 209 204 205 218 225 210 180 250 238 220 251 254 219 208 231 212 203 211 194 187 182 179 181 181 185 190 192 195 196 198 203 206 210 213 215 217 218 218 218 219 220 220 218 217 216 215 216 216 216 217 216 216 217 218 219 221 222 223 223 224 225 226 230 233 234 236 238 239 241 242 242
117 210 210 213 220 234 243 242 225 197 202 204 198 207 211 206 206 211 219 225 201 205 249 241 192 234 250 224 204 214 199 202 208 202 193 180 177 181 181 184 188 189 191 196 201 206 209 212 215 217 219 220 220 221 222 223 223 221 220 220 220 221 221 220 220 219 219 220 221 223 223 223 224 224 225 227 230 232 234 236 238 239 239 240 240 241
158 215 214 199 220 244 247 246 246 238 242 242 222 217 213 208 212 214 218 224 215 223 245 247 231 243 250 227 201 206 204 204 200 192 187 181 180 180 180 184 187 188 193 198 204 210 213 215 218 219 220 222 224 226 226 226 226 224 223 223 224 224 224 224 223 222 223 224 225 226 226 225 225 226 227 230 233 235 235 237 238 238 238 239 240 241
197 219 207 147 208 253 251 249 252 246 251 258 254 246 233 224 219 215 218 222 220 231 243 247 254 257 248 228 213 203 196 190 177 174 180 184 185 180 179 185 187 190 198 203 208 212 214 217 219 221 223 226 229 231 231 230 229 227 226 227 228 228 227 227 226 225 226 227 228 229 228 227 227 229 232 235 236 237 237 237 237 237 238 239 241 242
187 221 56 106 197 250 250 244 242 244 249 256 259 252 242 236 226 210 217 219 213 228 241 241 249 254 243 219 212 191 176 171 174 175 177 184 188 185 184 188 192 198 202 205 210 215 217 220 221 223 226 230 233 234 235 234 233 231 231 231 231 231 230 230 229 229 230 231 231 231 230 230 231 233 236 239 240 239 238 237 236 237 239 240 242 244
172 182 180 162 206 249 252 234 212 232 241 238 245 245 241 238 229 219 227 224 213 218 229 229 238 250 234 164 175 180 167 174 186 186 185 184 185 188 192 196 202 207 208 213 220 222 221 221 222 225 229 233 236 238 240 239 238 238 236 235 234 234 233 233 232 232 233 234 234 233 232 234 235 238 241 242 241 239 237 237 237 238 240 242 244 245
181 194 211 192 199 251 254 205 134 208 227 231 239 240 237 233 224 223 230 230 220 215 225 239 247 242 168 167 181 187 187 194 199 200 198 192 187 188 193 199 209 218 224 228 228 224 221 220 224 230 233 237 241 242 243 243 243 243 242 239 239 238 238 237 236 236 237 238 237 236 235 238 240 242 244 243 242 240 238 238 239 240 242 243 244 245
184 198 213 206 217 251 203 115 177 222 227 245 298 285 234 227 218 223 235 239 231 220 226 241 246 221 188 193 194 192 195 201 204 204 202 199 195 191 193 204 219 229 232 229 223 217 218 222 229 235 239 242 243 241 240 241 242 243 243 242 243 243 242 241 240 239 240 240 239 238 238 241 243 244 245 244 242 241 240 240 241 242 243 244 246 248
187 198 208 199 212 232 125 179 223 247 279 287 289 287 223 177 172 206 239 245 235 222 220 231 235 222 192 192 195 194 196 198 202 206 203 196 194 197 208 221 229 232 229 224 218 218 224 232 239 243 244 242 236 231 231 232 234 237 239 241 243 244 244 243 242 241 241 240 239 239 241 244 245 246 247 245 243 242 241 241 242 243 245 246 247 249
190 193 203 209 204 203 215 223 238 304 303 274 257 200 172 166 164 182 227 248 234 216 213 225 231 208 170 177 180 175 178 181 197 218 207 195 197 210 225 235 235 230 223 217 219 227 235 241 243 239 233 228 227 230 233 233 233 233 235 237 239 241 242 242 242 242 241 240 240 241 244 246 248 249 248 247 245 244 243 243 243 245 246 247 249 250
202 198 197 208 208 200 222 237 240 266 263 259 249 183 178 200 185 173 210 252 244 205 205 214 214 181 164 165 159 148 148 161 228 237 213 205 212 222 228 229 224 218 216 218 226 232 234 235 231 226 225 229 234 238 238 236 235 233 233 235 236 237 239 240 241 241 241 242 243 244 246 248 250 250 249 248 247 246 245 245 245 247 248 249 251 253
224 222 198 206 214 199 214 230 225 232 243 243 229 212 202 196 148 130 192 251 276 198 201 201 190 170 164 157 151 142 140 181 224 235 220 215 220 222 218 211 205 209 217 223 229 231 229 227 224 226 232 234 236 236 232 231 230 230 233 235 236 238 239 240 242 242 243 245 246 246 247 248 249 249 248 247 247 247 246 246 247 250 250 251 254 256
209 218 189 210 222 211 217 230 230 242 258 194 187 235 269 163 138 123 190 249 323 14 200 184 164 158 159 155 151 148 173 201 215 234 225 219 218 215 211 209 211 217 221 220 222 224 223 225 228 231 234 232 231 230 226 225 225 226 230 233 233 237 240 243 245 244 244 245 244 245 246 247 248 248 246 245 244 244 246 247 249 250 251 252 254 256
204 205 192 212 222 217 220 232 241 254 244 184 191 212 186 121 142 168 208 234 21 27 67 144 153 159 160 160 162 175 203 208 214 216 206 204 206 208 211 214 217 221 222 220 220 220 220 224 226 227 228 226 223 222 220 220 221 222 224 225 229 237 244 247 246 241 240 241 240 242 244 244 246 247 245 244 243 243 245 247 249 250 251 253 254 256
193 197 199 215 223 225 226 230 248 269 219 148 159 193 166 130 181 198 174 83 92 98 92 127 158 168 171 174 178 183 188 183 176 172 170 176 190 200 207 212 213 215 216 215 216 217 218 218 215 213 214 213 212 213 214 216 218 221 225 230 238 250 254 250 245 243 242 242 241 241 242 242 243 244 243 242 242 243 245 246 248 249 250 251 253 254
181 177 193 208 205 209 227 222 233 262 179 139 136 156 193 186 170 138 109 79 81 93 88 134 167 175 183 186 184 179 173 169 167 164 164 170 180 191 202 209 212 213 212 211 211 210 210 208 207 208 207 204 204 208 212 219 225 230 237 243 250 255 252 246 245 246 245 245 244 243 243 243 244 243 243 243 243 244 245 246 248 249 250 251 252 252
191 182 199 210 194 188 209 213 229 282 151 127 126 134 146 146 134 107 82 69 76 90 219 214 205 200 200 199 193 184 177 175 176 176 175 176 180 188 195 200 203 205 204 205 205 203 202 202 203 203 202 203 208 214 221 230 236 240 245 249 251 248 244 243 244 244 245 245 246 246 246 246 245 245 245 245 245 247 248 249 250 251 251 251 250 250
187 154 168 188 170 154 177 193 288 340 68 70 62 91 120 129 124 75 12 278 219 215 200 194 205 209 204 205 199 189 185 185 182 183 185 181 178 178 179 183 188 192 193 194 196 198 201 202 203 204 205 207 212 219 229 237 240 244 250 252 248 244 244 245 246 247 248 249 249 249 249 248 247 247 248 250 251 252 253 254 253 253 252 251 250 251
122 135 105 80 138 115 78 75 42 61 102 98 96 119 140 162 188 219 231 221 214 204 187 181 195 199 194 202 200 194 195 193 182 178 178 172 168 169 170 174 179 183 188 192 195 198 201 202 204 208 209 211 216 224 236 245 249 255 261 258 250 249 249 250 252 255 256 255 253 252 252 251 251 252 254 256 257 257 256 255 254 253 252 252 252 253
207 174 125 88 172 179 95 64 46 104 148 160 158 160 174 187 191 192 198 198 193 187 183 190 217 222 209 208 207 204 203 196 185 178 175 171 170 170 171 175 180 184 189 195 200 206 208 209 211 213 216 220 224 232 246 258 266 271 271 264 256 254 254 254 256 259 260 260 259 256 255 255 256 258 260 260 260 259 257 255 254 252 252 252 253 254
183 162 155 138 140 128 116 122 79 129 169 181 180 180 183 184 182 183 187 188 186 187 196 210 223 232 234 232 226 221 212 203 196 188 180 177 177 176 178 183 188 192 195 200 207 213 218 220 221 222 226 231 235 245 257 266 274 274 271 270 267 263 261 260 260 260 260 260 260 258 257 258 259 261 262 263 262 260 259 257 256 255 256 257 258 259
123 141 161 129 110 99 83 143 117 104 170 219 204 191 187 185 184 186 188 190 194 202 215 223 228 235 241 244 245 240 227 211 200 191 184 181 182 185 190 194 198 205 210 214 218 222 227 232 233 235 240 243 246 254 261 267 270 268 267 269 270 270 270 267 265 263 261 260 259 259 259 260 261 262 264 263 263 261 260 259 259 259 260 261 261 261
125 155 160 108 140 193 192 176 171 145 188 220 208 198 192 189 188 191 193 195 202 215 227 232 235 239 245 248 249 238 214 194 185 185 184 184 185 192 201 206 212 220 224 227 230 232 234 239 242 244 248 250 250 254 259 264 266 266 265 264 264 267 270 272 272 270 267 265 263 262 261 260 261 262 263 263 264 263 263 263 263 263 263 262 261 260
167 179 169 146 168 211 170 176 181 174 173 204 205 202 198 195 193 197 199 204 218 229 234 240 247 256 255 244 228 210 194 187 187 190 191 197 206 216 223 228 231 234 236 238 241 243 245 247 248 249 250 250 251 254 257 261 264 265 264 262 262 265 268 271 274 275 274 273 271 268 266 264 262 263 263 265 266 267 267 267 266 266 266 265 263 261
Height
1537 1540 1542 1542 1539 1537 1535 1535 1535 1534 1533 1534 1536 1539 1539 1541 1540 1533 1534 1535 1533 1536 1536 1532 1532 1530 1528 1527 1526 1528 1529 1529 1529 1529 1529 1529 1529 1530 1532 1533 1534 1535 1535 1536 1538 1539 1540 1541 1542 1543 1543 1545 1545 1546 1548 1548 1549 1550 1551 1552 1552 1554 1555 1556 1557 1557 1558 1559 1560 1561 1561 1562 1563 1564 1565 1566 1566 1567 1568 1569 1570 1571 1571 1571 1572 1572
1537 1541 1539 1535 1533 1532 1531 1530 1531 1532 1533 1533 1537 1540 1540 1540 1539 1532 1533 1534 1533 1536 1535 1531 1531 1529 1526 1525 1523 1524 1526 1526 1525 1525 1525 1525 1526 1527 1528 1530 1531 1532 1532 1534 1535 1536 1538 1539 1540 1541 1542 1543 1544 1546 1547 1548 1549 1549 1550 1551 1551 1552 1554 1554 1555 1556 1557 1558 1559 1560 1560 1561 1563 1564 1565 1565 1566 1567 1567 1569 1570 1570 1571 1571 1572 1572
1540 1539 1534 1530 1529 1529 1529 1528 1529 1531 1533 1535 1537 1541 1543 1541 1537 1534 1533 1534 1534 1537 1536 1532 1533 1530 1524 1522 1521 1521 1521 1520 1519 1519 1520 1520 1522 1523 1525 1526 1527 1528 1529 1531 1532 1534 1535 1537 1538 1539 1540 1542 1543 1545 1546 1547 1548 1549 1549 1550 1551 1552 1553 1554 1554 1555 1556 1557 1558 1560 1560 1562 1563 1563 1565 1565 1566 1567 1568 1569 1570 1571 1572 1572 1572 1573
1541 1535 1528 1527 1528 1528 1528 1529 1531 1532 1534 1537 1538 1542 1544 1539 1540 1540 1537 1536 1535 1536 1536 1534 1534 1529 1523 1521 1518 1516 1515 1514 1515 1516 1517 1518 1518 1520 1522 1523 1524 1525 1526 1527 1529 1531 1532 1534 1536 1537 1539 1540 1542 1544 1545 1546 1547 1548 1548 1549 1550 1551 1552 1553 1554 1555 1556 1557 1558 1560 1561 1562 1563 1564 1565 1566 1566 1568 1569 1569 1571 1572 1572 1573 1573 1573
1532 1527 1523 1524 1526 1527 1529 1531 1532 1536 1538 1537 1537 1540 1541 1537 1538 1538 1536 1535 1535 1535 1535 1536 1538 1529 1520 1519 1513 1509 1511 1511 1512 1514 1515 1516 1516 1518 1520 1521 1522 1522 1523 1524 1525 1527 1529 1531 1533 1535 1537 1538 1540 1542 1544 1545 1546 1547 1548 1549 1550 1551 1552 1553 1554 1555 1556 1557 1558 1559 1560 1561 1563 1564 1565 1566 1567 1568 1569 1570 1571 1572 1573 1573 1573 1574
1526 1523 1522 1523 1525 1527 1530 1532 1532 1536 1540 1538 1535 1534 1535 1535 1534 1534 1533 1535 1540 1542 1536 1539 1546 1530 1512 1513 1510 1507 1510 1510 1510 1511 1512 1513 1514 1516 1517 1518 1519 1520 1521 1523 1523 1525 1527 1528 1531 1533 1535 1536 1538 1541 1543 1544 1545 1546 1547 1548 1549 1550 1551 1552 1553 1554 1556 1557 1558 1559 1560 1561 1562 1563 1565 1566 1567 1568 1569 1570 1571 1572 1572 1573 1573 1574
1522 1522 1522 1523 1526 1528 1531 1532 1530 1533 1540 1541 1535 1531 1531 1531 1534 1535 1535 1539 1545 1546 1537 1538 1548 1538 1517 1512 1509 1509 1510 1509 1509 1509 1508 1510 1511 1512 1514 1515 1516 1517 1518 1520 1521 1523 1524 1526 1528 1531 1532 1534 1536 1539 1541 1543 1544 1545 1546 1547 1548 1549 1550 1551 1552 1554 1555 1556 1558 1559 1560 1561 1562 1562 1564 1565 1567 1567 1569 1570 1571 1572 1572 1573 1574 1574
1520 1523 1524 1524 1527 1529 1532 1533 1529 1530 1538 1540 1534 1531 1531 1531 1535 1536 1537 1542 1542 1541 1540 1538 1543 1545 1529 1512 1505 1507 1510 1508 1507 1507 1505 1506 1507 1507 1510 1512 1513 1514 1515 1516 1518 1520 1521 1523 1526 1528 1530 1532 1535 1537 1539 1541 1542 1543 1544 1545 1547 1548 1549 1550 1551 1552 1554 1555 1557 1558 1560 1561 1562 1562 1563 1564 1566 1567 1568 1569 1571 1572 1572 1573 1574 1575
1519 1523 1524 1524 1527 1530 1530 1529 1527 1528 1534 1536 1533 1532 1533 1534 1537 1537 1539 1543 1541 1543 1548 1541 1541 1548 1530 1507 1502 1503 1505 1506 1502 1501 1501 1501 1502 1503 1506 1509 1510 1512 1513 1514 1516 1517 1519 1521 1523 1525 1527 1530 1533 1535 1537 1539 1541 1542 1543 1544 1546 1547 1549 1550 1551 1552 1553 1555 1556 1558 1559 1560 1561 1562 1563 1564 1565 1566 1568 1569 1570 1571 1572 1572 1573 1574
1520 1523 1522 1522 1526 1527 1526 1527 1526 1526 1530 1533 1533 1533 1535 1536 1537 1539 1542 1543 1545 1549 1550 1542 1541 1546 1525 1501 1502 1503 1500 1501 1496 1493 1494 1495 1498 1501 1503 1506 1508 1510 1512 1513 1514 1515 1517 1519 1521 1523 1526 1529 1531 1533 1536 1537 1539 1541 1542 1543 1544 1546 1548 1549 1551 1552 1553 1554 1556 1557 1559 1559 1560 1561 1562 1563 1564 1566 1567 1568 1569 1570 1571 1572 1573 1574
1520 1522 1522 1522 1523 1523 1525 1529 1528 1527 1528 1531 1533 1535 1538 1539 1538 1542 1542 1543 1552 1550 1543 1537 1535 1542 1532 1504 1495 1497 1493 1491 1490 1489 1491 1493 1496 1499 1501 1504 1505 1507 1509 1511 1512 1514 1515 1517 1519 1521 1524 1527 1530 1532 1534 1536 1538 1539 1540 1542 1543 1545 1547 1548 1550 1551 1552 1554 1555 1557 1558 1559 1559 1560 1561 1562 1563 1565 1566 1567 1568 1569 1570 1571 1572 1573
1522 1523 1522 1521 1522 1522 1524 1528 1529 1529 1529 1530 1533 1536 1542 1543 1543 1548 1546 1549 1558 1547 1532 1529 1527 1536 1536 1508 1490 1489 1486 1485 1487 1488 1491 1493 1495 1498 1500 1502 1503 1505 1507 1508 1510 1510 1512 1514 1516 1519 1522 1525 1528 1530 1532 1534 1536 1538 1539 1541 1542 1544 1546 1547 1549 1550 1551 1553 1554 1556 1557 1558 1559 1559 1560 1561 1563 1564 1565 1566 1567 1568 1569 1570 1571 1572
1522 1521 1520 1521 1521 1521 1523 1528 1533 1533 1531 1532 1534 1539 1547 1551 1552 1554 1553 1554 1555 1541 1527 1526 1526 1530 1523 1501 1491 1489 1486 1487 1487 1487 1489 1491 1494 1497 1499 1500 1501 1503 1505 1506 1507 1507 1509 1511 1513 1517 1520 1523 1526 1528 1530 1532 1534 1536 1538 1539 1541 1542 1544 1545 1547 1549 1550 1552 1553 1555 1556 1557 1558 1559 1560 1561 1562 1563 1564 1566 1566 1567 1568 1569 1570 1571
1523 1519 1518 1521 1520 1517 1518 1523 1530 1532 1532 1532 1534 1539 1547 1552 1556 1555 1550 1548 1542 1533 1528 1527 1528 1527 1513 1496 1490 1487 1486 1489 1488 1488 1489 1490 1493 1496 1497 1500 1500 1502 1503 1503 1504 1505 1507 1509 1512 1515 1518 1521 1524 1526 1529 1530 1532 1535 1536 1538 1540 1541 1543 1544 1546 1547 1549 1550 1552 1554 1555 1556 1557 1558 1559 1560 1561 1562 1563 1564 1565 1566 1567 1568 1569 1571
1525 1519 1513 1515 1514 1510 1511 1511 1515 1522 1528 1529 1526 1531 1537 1539 1543 1542 1538 1537 1533 1531 1532 1532 1529 1521 1508 1496 1489 1486 1488 1490 1489 1490 1490 1491 1494 1496 1498 1500 1500 1500 1502 1502 1503 1504 1506 1508 1511 1513 1517 1519 1522 1524 1527 1529 1531 1533 1535 1537 1538 1540 1541 1543 1544 1546 1547 1549 1550 1552 1554 1555 1556 1557 1558 1559 1560 1562 1562 1563 1564 1565 1566 1567 1568 1570
1518 1510 1501 1504 1505 1505 1508 1507 1509 1517 1527 1527 1522 1528 1532 1526 1525 1529 1529 1528 1531 1534 1533 1531 1524 1509 1497 1490 1489 1491 1491 1489 1491 1491 1491 1492 1493 1495 1497 1499 1499 1499 1500 1500 1501 1502 1505 1507 1510 1512 1515 1518 1521 1523 1526 1528 1530 1532 1534 1536 1537 1539 1540 1541 1543 1544 1546 1547 1549 1551 1552 1553 1555 1556 1557 1558 1559 1560 1561 1562 1563 1564 1565 1566 1567 1568
1512 1509 1501 1504 1506 1505 1507 1507 1508 1512 1519 1524 1525 1526 1523 1518 1519 1527 1531 1528 1533 1537 1526 1519 1515 1504 1496 1489 1485 1490 1491 1490 1493 1492 1491 1492 1492 1494 1495 1495 1497 1497 1497 1498 1499 1501 1503 1506 1508 1511 1514 1517 1519 1522 1524 1526 1528 1530 1532 1534 1536 1537 1539 1540 1541 1543 1544 1546 1548 1549 1551 1552 1553 1555 1556 1557 1558 1559 1560 1561 1562 1563 1564 1565 1566 1567
1501 1507 1506 1506 1508 1507 1507 1508 1508 1508 1511 1519 1524 1520 1516 1520 1522 1527 1535 1535 1537 1537 1519 1508 1507 1504 1501 1492 1484 1487 1490 1491 1492 1491 1491 1492 1491 1492 1492 1493 1495 1495 1496 1498 1499 1501 1502 1504 1507 1510 1513 1516 1519 1521 1523 1525 1528 1530 1532 1533 1534 1535 1537 1539 1540 1541 1543 1545 1546 1548 1549 1551 1552 1553 1555 1556 1557 1558 1559 1560 1561 1562 1563 1564 1565 1566
1492 1503 1509 1508 1509 1509 1507 1508 1511 1511 1510 1513 1516 1513 1515 1526 1529 1529 1536 1536 1536 1536 1519 1504 1501 1496 1492 1486 1481 1485 1485 1485 1488 1489 1489 1488 1487 1489 1490 1492 1494 1494 1496 1497 1497 1500 1501 1503 1506 1508 1512 1515 1517 1520 1522 1525 1527 1528 1530 1532 1533 1535 1536 1538 1539 1540 1542 1543 1545 1546 1548 1550 1551 1552 1554 1555 1556 1557 1558 1559 1560 1561 1562 1563 1564 1564
1490 1498 1508 1511 1510 1510 1509 1510 1514 1514 1513 1514 1515 1513 1512 1519 1523 1524 1527 1524 1526 1530 1518 1504 1497 1485 1474 1470 1472 1477 1476 1476 1482 1484 1484 1483 1483 1485 1486 1488 1490 1491 1492 1493 1495 1497 1499 1502 1505 1507 1510 1513 1516 1519 1521 1523 1525 1527 1528 1530 1532 1534 1535 1536 1538 1539 1541 1542 1543 1545 1546 1548 1549 1551 1552 1553 1555 1556 1556 1557 1558 1559 1560 1561 1562 1563
1491 1495 1503 1512 1513 1511 1510 1507 1505 1505 1508 1513 1517 1516 1514 1516 1519 1521 1518 1513 1516 1522 1516 1508 1496 1474 1460 1458 1461 1466 1467 1468 1472 1475 1476 1478 1479 1481 1482 1483 1485 1487 1489 1491 1492 1495 1497 1501 1503 1506 1509 1512 1515 1517 1519 1521 1523 1525 1526 1528 1529 1531 1532 1534 1536 1538 1539 1540 1542 1543 1545 1546 1548 1549 1550 1552 1553 1554 1555 1556 1557 1558 1559 1560 1561 1561
1491 1493 1499 1511 1514 1509 1504 1498 1496 1498 1499 1503 1509 1510 1510 1512 1517 1521 1519 1509 1508 1510 1506 1505 1493 1467 1454 1455 1454 1457 1460 1461 1465 1468 1470 1473 1474 1476 1478 1480 1482 1484 1486 1488 1490 1492 1495 1498 1501 1504 1507 1510 1512 1515 1516 1519 1521 1522 1524 1525 1527 1529 1531 1533 1534 1536 1537 1539 1540 1542 1543 1544 1546 1547 1549 1550 1551 1552 1553 1554 1555 1556 1557 1558 1559 1559
1485 1489 1495 1502 1503 1501 1498 1494 1496 1498 1496 1499 1502 1502 1504 1506 1507 1513 1513 1504 1504 1503 1497 1501 1495 1468 1456 1458 1456 1456 1458 1458 1461 1464 1466 1469 1470 1473 1476 1478 1480 1482 1484 1486 1488 1490 1493 1496 1499 1502 1504 1507 1509 1512 1514 1516 1518 1520 1521 1523 1525 1526 1528 1531 1533 1534 1536 1537 1539 1540 1541 1542 1544 1545 1546 1548 1549 1550 1551 1552 1553 1554 1555 1556 1557 1558
1485 1490 1494 1497 1496 1495 1496 1495 1496 1496 1497 1500 1498 1496 1499 1499 1497 1501 1501 1499 1503 1499 1495 1505 1498 1470 1459 1462 1461 1459 1458 1457 1458 1460 1463 1467 1469 1471 1473 1475 1478 1480 1482 1485 1487 1489 1493 1495 1498 1500 1502 1505 1507 1509 1511 1513 1515 1517 1518 1520 1522 1524 1526 1528 1530 1532 1534 1535 1537 1538 1539 1540 1541 1543 1544 1546 1547 1548 1549 1550 1551 1552 1553 1554 1555 1556
1485 1490 1495 1501 1502 1501 1502 1502 1501 1500 1499 1497 1493 1494 1494 1492 1496 1499 1497 1502 1502 1490 1491 1502 1489 1465 1461 1464 1462 1462 1461 1459 1460 1460 1461 1465 1467 1468 1470 1472 1475 1478 1480 1483 1485 1488 1491 1493 1496 1498 1500 1502 1505 1507 1509 1511 1513 1514 1516 1518 1520 1522 1524 1526 1528 1530 1531 1533 1534 1535 1536 1537 1539 1541 1542 1544 1545 1546 1547 1548 1549 1550 1551 1552 1553 1554
1477 1483 1487 1495 1499 1497 1492 1489 1489 1493 1496 1493 1489 1491 1491 1491 1495 1495 1497 1505 1498 1483 1487 1490 1473 1460 1462 1463 1462 1464 1463 1461 1462 1462 1462 1463 1465 1465 1467 1470 1473 1476 1478 1480 1482 1485 1488 1490 1493 1495 1498 1500 1503 1505 1507 1509 1510 1512 1514 1516 1518 1520 1522 1524 1526 1527 1529 1530 1531 1532 1534 1535 1537 1538 1540 1541 1542 1544 1545 1545 1546 1547 1548 1550 1551 1552
1474 1478 1478 1479 1480 1476 1471 1468 1469 1476 1485 1487 1484 1486 1488 1488 1488 1491 1495 1494 1484 1482 1483 1473 1463 1462 1461 1461 1462 1462 1463 1463 1462 1463 1462 1462 1463 1463 1465 1468 1471 1474 1476 1478 1480 1482 1485 1488 1490 1492 1495 1498 1500 1503 1505 1507 1508 1510 1512 1513 1516 1518 1519 1521 1523 1524 1526 1527 1528 1530 1531 1533 1535 1536 1538 1539 1540 1541 1542 1543 1544 1545 1546 1548 1548 1549
1472 1475 1473 1470 1468 1462 1458 1459 1464 1469 1474 1476 1478 1481 1483 1484 1486 1489 1486 1474 1474 1487 1477 1457 1462 1465 1454 1455 1460 1459 1461 1463 1462 1462 1461 1461 1463 1463 1464 1467 1470 1472 1474 1475 1477 1479 1482 1484 1487 1489 1492 1494 1497 1500 1502 1504 1506 1508 1510 1512 1514 1515 1516 1518 1520 1521 1523 1524 1525 1527 1529 1531 1533 1534 1536 1537 1538 1539 1540 1541 1542 1543 1544 1545 1546 1547
1466 1467 1465 1466 1466 1460 1454 1456 1460 1464 1466 1468 1472 1475 1475 1479 1481 1477 1472 1465 1472 1480 1463 1449 1460 1458 1444 1449 1455 1453 1456 1458 1456 1458 1458 1458 1461 1461 1462 1465 1467 1469 1470 1472 1474 1476 1479 1482 1483 1486 1489 1491 1494 1497 1499 1501 1503 1505 1507 1509 1511 1512 1513 1515 1517 1518 1520 1521 1522 1525 1527 1529 1531 1532 1533 1534 1535 1536 1537 1538 1540 1540 1542 1542 1543 1545
1461 1459 1458 1463 1466 1461 1456 1456 1458 1462 1465 1465 1466 1468 1468 1469 1467 1463 1464 1465 1469 1467 1452 1449 1458 1450 1439 1445 1448 1447 1450 1451 1452 1456 1456 1457 1457 1457 1460 1463 1464 1465 1466 1468 1472 1474 1477 1479 1481 1483 1486 1488 1491 1493 1495 1497 1499 1501 1504 1505 1507 1509 1510 1512 1514 1515 1517 1518 1520 1522 1525 1527 1528 1529 1530 1531 1533 1534 1535 1536 1537 1538 1539 1540 1541 1542
1461 1458 1457 1462 1468 1463 1456 1457 1461 1464 1465 1464 1463 1463 1460 1456 1457 1461 1463 1463 1466 1463 1451 1454 1460 1446 1435 1441 1443 1443 1446 1448 1452 1454 1453 1455 1456 1456 1458 1459 1460 1462 1464 1467 1471 1472 1475 1477 1479 1482 1484 1485 1488 1489 1491 1493 1495 1498 1500 1502 1504 1505 1507 1509 1510 1512 1514 1516 1518 1520 1522 1524 1525 1526 1528 1528 1530 1531 1532 1533 1534 1535 1536 1537 1538 1539
1462 1462 1461 1465 1471 1463 1452 1457 1463 1463 1466 1469 1465 1455 1447 1446 1451 1457 1457 1455 1458 1457 1454 1461 1460 1439 1430 1438 1442 1441 1443 1447 1449 1450 1451 1453 1453 1453 1454 1455 1457 1460 1463 1466 1469 1470 1472 1474 1476 1479 1480 1482 1484 1485 1487 1489 1491 1495 1497 1498 1500 1502 1504 1506 1507 1510 1512 1513 1516 1518 1519 1521 1522 1524 1525 1525 1527 1528 1529 1530 1531 1532 1533 1534 1535 1536
1459 1461 1463 1468 1470 1459 1448 1453 1461 1464 1470 1468 1451 1434 1431 1439 1447 1450 1448 1445 1446 1448 1450 1452 1443 1429 1431 1439 1440 1440 1443 1444 1445 1446 1446 1447 1448 1450 1451 1452 1456 1459 1462 1465 1466 1467 1470 1472 1474 1476 1477 1480 1481 1482 1484 1486 1488 1491 1493 1495 1498 1499 1501 1503 1505 1507 1509 1511 1513 1514 1516 1518 1519 1520 1521 1522 1523 1525 1526 1527 1528 1529 1530 1531 1533 1533
1458 1458 1460 1463 1464 1456 1449 1454 1462 1465 1461 1444 1425 1420 1425 1432 1438 1440 1437 1434 1436 1439 1438 1435 1431 1431 1434 1435 1435 1438 1439 1438 1439 1441 1441 1442 1445 1447 1449 1452 1456 1459 1461 1463 1464 1466 1469 1470 1472 1474 1476 1478 1479 1481 1483 1485 1486 1489 1491 1493 1495 1497 1499 1501 1502 1505 1507 1508 1510 1511 1513 1515 1516 1517 1518 1518 1520 1521 1523 1524 1525 1526 1528 1528 1529 1530
1455 1458 1458 1459 1459 1456 1456 1462 1462 1451 1436 1423 1419 1423 1424 1424 1427 1432 1431 1428 1429 1433 1432 1430 1430 1430 1430 1430 1431 1433 1433 1435 1437 1438 1439 1441 1441 1444 1448 1452 1456 1458 1459 1461 1463 1465 1467 1469 1471 1473 1474 1476 1478 1479 1481 1483 1485 1487 1489 1491 1492 1494 1496 1498 1500 1502 1503 1505 1506 1508 1510 1511 1512 1513 1514 1515 1517 1518 1519 1521 1522 1523 1524 1525 1526 1527
1447 1453 1454 1455 1457 1457 1458 1458 1445 1428 1421 1421 1423 1425 1425 1424 1426 1431 1431 1425 1422 1425 1427 1425 1424 1426 1429 1431 1430 1431 1433 1435 1437 1437 1438 1440 1440 1443 1448 1451 1454 1456 1457 1459 1461 1463 1465 1468 1470 1472 1474 1475 1477 1478 1479 1481 1483 1484 1486 1488 1489 1491 1493 1494 1496 1498 1500 1501 1502 1504 1506 1507 1508 1509 1510 1512 1513 1514 1516 1518 1518 1520 1521 1522 1523 1524
1439 1445 1448 1450 1449 1448 1448 1443 1433 1427 1424 1417 1414 1418 1421 1420 1420 1424 1425 1417 1411 1416 1420 1419 1420 1425 1429 1430 1429 1431 1433 1435 1436 1437 1437 1438 1441 1444 1447 1449 1451 1453 1455 1458 1460 1462 1465 1467 1468 1470 1472 1474 1475 1476 1478 1479 1481 1482 1483 1485 1486 1488 1489 1491 1492 1494 1495 1497 1499 1501 1502 1503 1504 1506 1507 1508 1510 1511 1513 1514 1515 1516 1518 1519 1519 1520
1435 1437 1440 1443 1441 1440 1441 1438 1436 1436 1425 1409 1407 1413 1415 1414 1414 1418 1420 1413 1406 1409 1413 1414 1419 1423 1425 1428 1430 1430 1433 1435 1436 1434 1434 1438 1441 1443 1445 1448 1450 1453 1455 1457 1459 1461 1463 1465 1467 1469 1471 1472 1473 1474 1476 1477 1478 1479 1481 1482 1483 1485 1486 1487 1489 1490 1492 1494 1496 1497 1499 1500 1501 1502 1503 1505 1506 1507 1509 1511 1512 1513 1514 1515 1516 1516
1435 1435 1436 1439 1437 1437 1438 1434 1430 1425 1413 1407 1412 1414 1414 1415 1413 1417 1425 1417 1406 1407 1410 1411 1415 1419 1421 1425 1427 1429 1432 1435 1433 1432 1435 1438 1440 1442 1445 1447 1449 1452 1454 1455 1458 1460 1462 1463 1465 1467 1469 1470 1471 1472 1474 1475 1476 1478 1479 1480 1481 1483 1484 1485 1486 1488 1490 1491 1493 1495 1496 1497 1498 1499 1500 1501 1503 1504 1506 1507 1509 1510 1511 1512 1512 1513
1438 1438 1438 1439 1435 1433 1433 1428 1421 1414 1409 1411 1416 1415 1415 1414 1412 1420 1428 1419 1407 1409 1410 1408 1413 1417 1419 1423 1426 1428 1430 1431 1431 1433 1436 1438 1440 1443 1445 1447 1448 1450 1452 1454 1456 1458 1460 1462 1464 1465 1467 1468 1469 1471 1472 1473 1475 1476 1477 1479 1480 1481 1482 1483 1485 1487 1488 1490 1491 1492 1493 1494 1495 1496 1497 1498 1500 1501 1503 1504 1505 1506 1507 1508 1509 1509
1435 1435 1434 1432 1429 1428 1428 1423 1417 1412 1410 1413 1414 1414 1415 1415 1416 1419 1418 1412 1411 1414 1412 1410 1414 1417 1419 1422 1425 1426 1427 1428 1431 1433 1435 1437 1440 1441 1443 1446 1447 1449 1451 1453 1455 1457 1459 1461 1462 1464 1465 1467 1468 1470 1471 1472 1474 1475 1476 1477 1478 1479 1481 1483 1484 1486 1487 1488 1489 1490 1490 1491 1492 1493 1494 1496 1497 1499 1500 1501 1502 1502 1503 1504 1505 1505
1427 1429 1430 1428 1425 1423 1422 1420 1416 1411 1409 1411 1414 1414 1414 1415 1415 1414 1411 1412 1415 1415 1413 1414 1416 1417 1419 1421 1422 1425 1427 1429 1431 1432 1434 1437 1438 1440 1442 1444 1446 1448 1450 1452 1454 1456 1458 1459 1461 1463 1464 1466 1468 1469 1470 1471 1473 1474 1475 1476 1477 1479 1481 1482 1483 1484 1485 1486 1487 1487 1488 1489 1490 1491 1492 1493 1494 1495 1496 1497 1498 1498 1499 1500 1500 1501
1414 1419 1422 1419 1417 1419 1421 1419 1415 1409 1407 1410 1412 1413 1413 1413 1411 1411 1412 1414 1415 1414 1415 1417 1417 1418 1420 1420 1422 1425 1427 1428 1431 1433 1434 1436 1438 1440 1442 1443 1445 1447 1448 1450 1453 1455 1456 1458 1460 1461 1463 1465 1467 1468 1469 1471 1472 1473 1474 1475 1477 1479 1480 1480 1481 1482 1483 1484 1485 1485 1486 1487 1488 1489 1490 1490 1492 1492 1493 1494 1494 1495 1495 1496 1496 1497
1406 1409 1411 1406 1405 1411 1414 1412 1410 1408 1409 1411 1411 1410 1411 1412 1411 1412 1413 1414 1415 1416 1417 1417 1417 1419 1420 1420 1422 1425 1426 1428 1431 1432 1434 1436 1438 1439 1441 1442 1444 1446 1447 1450 1451 1453 1455 1457 1459 1460 1462 1464 1465 1467 1468 1469 1471 1472 1473 1474 1476 1477 1478 1479 1480 1480 1481 1482 1482 1483 1484 1485 1485 1486 1487 1488 1489 1489 1490 1490 1491 1491 1492 1492 1493 1493
1402 1404 1406 1403 1403 1407 1409 1409 1411 1412 1413 1412 1411 1411 1411 1412 1413 1414 1414 1415 1416 1417 1417 1418 1419 1420 1420 1421 1423 1424 1426 1429 1430 1432 1434 1435 1437 1439 1440 1442 1443 1445 1447 1449 1450 1452 1454 1456 1457 1460 1461 1462 1464 1466 1467 1468 1469 1470 1471 1473 1474 1475 1476 1477 1477 1478 1479 1479 1480 1481 1482 1482 1483 1484 1484 1485 1485 1486 1486 1487 1487 1488 1488 1488 1489 1489
1403 1404 1404 1405 1407 1410 1412 1413 1414 1414 1414 1413 1413 1413 1413 1414 1414 1415 1416 1417 1417 1418 1418 1419 1420 1420 1421 1423 1424 1425 1427 1429 1430 1432 1434 1435 1437 1439 1440 1441 1443 1444 1446 1448 1449 1451 1453 1455 1457 1458 1460 1461 1463 1464 1465 1467 1468 1468 1470 1471 1472 1473 1474 1475 1475 1475 1476 1477 1478 1478 1479 1480 1480 1481 1481 1482 1482 1482 1483 1483 1483 1484 1484 1484 1484 1484
1404 1404 1405 1406 1407 1408 1411 1415 1416 1415 1415 1415 1414 1414 1414 1415 1416 1417 1417 1418 1418 1418 1419 1420 1420 1421 1422 1423 1424 1426 1427 1428 1430 1433 1434 1435 1437 1438 1439 1441 1443 1444 1446 1447 1449 1450 1452 1453 1455 1457 1458 1460 1462 1463 1464 1465 1466 1467 1468 1469 1470 1471 1471 1472 1472 1473 1474 1474 1475 1476 1476 1476 1477 1477 1478 1478 1478 1479 1479 1479 1480 1480 1480 1480 1480 1480
1401 1403 1405 1406 1407 1409 1412 1416 1417 1416 1416 1415 1415 1415 1415 1415 1416 1417 1417 1418 1418 1419 1420 1420 1421 1422 1422 1423 1425 1426 1427 1429 1430 1432 1433 1435 1436 1437 1439 1441 1442 1443 1445 1447 1448 1450 1451 1452 1454 1456 1457 1459 1460 1461 1462 1463 1464 1465 1466 1466 1467 1468 1469 1469 1470 1470 1471 1472 1472 1472 1473 1473 1473 1474 1474 1475 1475 1475 1475 1475 1475 1475 1475 1475 1475 1475
1399 1402 1403 1404 1408 1413 1415 1416 1417 1417 1418 1417 1415 1414 1414 1414 1415 1416 1417 1418 1418 1419 1419 1420 1421 1422 1423 1424 1425 1425 1427 1428 1429 1431 1433 1434 1435 1437 1438 1439 1441 1443 1444 1445 1447 1449 1450 1451 1453 1454 1456 1457 1458 1459 1460 1461 1462 1463 1463 1464 1464 1465 1466 1467 1467 1467 1468 1468 1468 1469 1469 1469 1470 1470 1470 1471 1471 1471 1471 1471 1471 1471 1471 1471 1471 1471
1400 1402 1402 1404 1408 1410 1410 1411 1412 1413 1413 1413 1412 1412 1412 1413 1414 1415 1416 1417 1418 1419 1419 1420 1421 1422 1423 1423 1424 1425 1426 1427 1429 1431 1432 1433 1435 1436 1437 1439 1440 1442 1443 1445 1446 1447 1449 1450 1452 1453 1454 1456 1456 1457 1458 1459 1459 1460 1461 1462 1462 1462 1463 1463 1463 1464 1464 1464 1464 1465 1465 1465 1466 1466 1466 1466 1466 1467 1467 1467 1466 1466 1466 1466 1466 1466
1397 1398 1399 1401 1403 1404 1403 1405 1407 1407 1407 1408 1408 1409 1410 1411 1412 1413 1414 1415 1417 1418 1419 1420 1420 1421 1422 1423 1424 1425 1426 1427 1429 1430 1431 1433 1434 1435 1437 1438 1439 1441 1442 1443 1444 1446 1447 1448 1449 1451 1452 1453 1454 1454 1455 1455 1456 1457 1458 1459 1459 1460 1460 1459 1459 1459 1459 1459 1460 1460 1460 1461 1461 1461 1461 1461 1462 1462 1462 1462 1462 1461 1461 1461 1461 1460